Home > Weather > Memphis > Past weeks

Flag for U.S.A. Weather for the Past 2 Weeks in Memphis, Tennessee, U.S.A.

Now
39 °F

Passing clouds.


Feels Like: 30 °F
Forecast: 28 / 37 °F
Wind: 17 mph from Northwest

Location: Memphis International Airport

Current Time: Feb 9, 2016 at 3:36:44 PM

Latest Report: Feb 9, 2016 at 2:54 PM


Visibility: 10 mi

Pressure: 30.05 "Hg

Humidity: 34%

Dew point: 13 °F

Location of MemphisLocation

Historic Weather in Memphis — Graph

°F

Memphis Temperature Yesterday

Maximum temperature yesterday: 47 °F (at 12:54 AM)
Minimum temperature yesterday: 36 °F (at 11:54 PM)
Average temperature yesterday: 42 °F

High & Low Weather Summary for the Past Weeks

 TemperatureHumidityPressure
High74 °F (Feb 2, 2:54 PM)93% (Feb 2, 1:54 AM)30.49 "Hg (Feb 2, 1:54 AM)
Low25 °F (Jan 28, 12:54 AM)24% (Feb 5, 12:54 PM)29.55 "Hg (Feb 2, 4:02 PM)
Average48 °F59%30.06 "Hg
* Reported Jan 25 1:54 PM — Feb 9 1:54 PM, Memphis, Weather by CustomWeather, © 2016

Note: Actual official high and low records may vary slightly from our data, if they occured in-between our weather recording intervals... More about our weather records

Advertising

Memphis Weather History for the Previous 24 Hours

 ConditionsComfort  
Time TempWeatherWind HumidityBarometerVisibility
1:54 PM
Tue, Feb 9
40 °FScattered clouds.18 mph35%30.02 "Hg10 mi
12:54 PM40 °FScattered clouds.17 mph35%30.01 "Hg10 mi
11:54 AM39 °FPartly sunny.16 mph36%30.03 "Hg10 mi
10:54 AM37 °FPartly sunny.16 mph39%30.02 "Hg10 mi
9:54 AM35 °FPartly sunny.18 mph44%30.00 "Hg10 mi
8:54 AM35 °FPassing clouds.18 mph42%30.00 "Hg10 mi
7:54 AM33 °FPassing clouds.14 mph49%29.99 "Hg10 mi
6:54 AM32 °FScattered clouds.20 mph47%29.98 "Hg10 mi
5:54 AM33 °FPartly sunny.20 mph48%29.96 "Hg10 mi
4:54 AM33 °FOvercast.8 mph56%29.96 "Hg10 mi
3:54 AM33 °FOvercast.10 mph54%29.96 "Hg10 mi
2:54 AM34 °FOvercast.12 mph52%29.96 "Hg10 mi
1:54 AM35 °FOvercast.21 mph48%29.96 "Hg10 mi
12:54 AM36 °FOvercast.13 mph50%29.96 "Hg10 mi
11:54 PM
Mon, Feb 8
36 °FOvercast.6 mph52%29.97 "Hg10 mi
10:54 PM37 °FOvercast.9 mph48%30.00 "Hg10 mi
9:54 PM37 °FOvercast.12 mph48%30.01 "Hg10 mi
8:54 PM38 °FOvercast.10 mph46%30.00 "Hg10 mi
7:54 PM38 °FOvercast.13 mph48%30.01 "Hg10 mi
6:54 PM39 °FOvercast.14 mph46%30.01 "Hg10 mi
5:54 PM40 °FOvercast.18 mph45%30.00 "Hg10 mi
4:54 PM41 °FMostly cloudy.23 mph49%29.97 "Hg10 mi
3:54 PM44 °FOvercast.24 mph35%29.95 "Hg10 mi
Weather by CustomWeather, © 2016

See weather overviewHow to use our weather pages